Weather in Saas-Almagell

Switzerland     46°05′36″N   7°57′28″E
temp.,
°C
wind,
m/s
gust,
m/s
humid.,
%
clouds,
%
prec.,
mm/h
press.,
hPa
HPBL,
m
16 january, sun
sun1601:00−2w22310 0.0 102311
04:00−2wnw32300 0.0 102211
07:00−3wnw32320 0.0 102314
10:00−1wnw32370 0.0 102349
13:00+2nnw23370 0.0 1021403
16:00−1nw44520 0.0 1023143
19:00−5wnw75380 0.0 102877
22:00−6wnw75230 0.0 103058
17 january, mon
mon1701:00−6wnw65250 0.0 103145
04:00−5wnw64260 0.0 103039
07:00−5wnw642838 0.0 103032
10:00−2wnw54305 0.0 102969
13:00+1nw33320 0.0 1026348
16:00−1nw54415 0.0 1026109
19:00−3wnw643299 0.0 102856
22:00−3wnw64390 0.0 102942
18 january, tue
tue1801:00−3wnw43410 0.0 102717
04:00−3wnw22420 0.0 102610
07:00−4wnw11430 0.0 102710
10:00−1s11410 0.0 102833
13:000se21430 0.0 1029203
16:00−1sse11560 0.0 103059
19:00−4sw11620 0.0 103110
22:00−4sw22560 0.0 103210
19 january, wed
wed1901:00−5sw22490 0.0 103210
04:00−5wsw21430 0.0 103110
07:00−6wsw11400 0.0 102910
10:00−3s11390 0.0 102848
13:00−2se22440 0.0 1026271
16:00−3se11600 0.0 1024134
19:00−5wnw21675 0.0 102412
22:00−6wnw22590 0.0 102416
20 january, thu
thu2001:00−6wnw22471 0.0 102315
04:00−7wnw324938 0.0 102120
07:00−7wnw335447 0.0 102034
10:00−5nw33521 0.0 1018118
13:00−2nnw33589 0.0 1014491
16:00−4nw446421 0.1 1014310
19:00−8wnw65666 0.1 1018118
22:00−9nw65676 0.0 1019101